Hourly Data Report for September 27, 2017

All times are specified in Local Standard Time (LST). Add 1 hour to adjust for Daylight Saving Time where and when it is observed.

MISCOU ISLAND (AUT)
NEW BRUNSWICK

48°00'32.002" N
64°29'39.008" W
4.00 m
8103050
71719
WMI

Download Data

Hourly Data (September 2017)
Hourly Data Report for September 27, 2017
Temp Definition
°C
Dew Point Temp Definition
°C
Rel Hum Definition
%
Wind Dir Definition
10's deg

Wind Spd Definition
km/h
Visibility Definition
km
Stn Press Definition
kPa
Hmdx Definition


Wind Chill Definition


Weather Definition


TIME
00:00 11.8 8.1 78 9 12   101.94     LegendNANA
01:00 11.6 7.1 74 8 13   101.91     LegendNANA
02:00 11.5 7.3 75 8 12   101.87     LegendNANA
03:00 11.6 8.2 80 7 11   101.84     LegendNANA
04:00 11.7 8.9 83 8 12   101.78     LegendNANA
05:00 12.1 8.5 79 9 10   101.76     LegendNANA
06:00 12.3 8.8 79 10 14   101.64     LegendNANA
07:00 11.7 9.2 85 11 14   101.66     LegendNANA
08:00 11.9 10.0 88 10 16   101.61     LegendNANA
09:00 12.0 10.3 89 10 19   101.53     LegendNANA
10:00 12.5 11.0 91 10 17   101.47     LegendNANA
11:00 12.4 10.5 88 11 15   101.45     LegendNANA
12:00 11.9 10.5 91 10 18   101.30     LegendNANA
13:00 12.0 10.6 92 9 18   101.16     LegendNANA
14:00 11.9 10.6 92 10 17   101.07     LegendNANA
15:00 12.2 11.1 93 11 18   100.92     LegendNANA
16:00 12.4 11.4 93 11 12   100.83     LegendNANA
17:00 12.7 11.7 94 11 8   100.72     LegendNANA
18:00 13.0 12.1 94 14 3   100.63     LegendNANA
19:00 13.0 12.2 95   0   100.54     LegendNANA
20:00 13.1 12.3 95 34 4   100.41     LegendNANA
21:00 13.5 12.8 96 16 7   100.24     LegendNANA
22:00 12.3 11.7 96 32 34   100.37     LegendNANA
23:00 12.9 12.3 96 21 7   100.25     LegendNANA

Notes on Data Quality.

Legend

  • E = Estimated
  • M = Missing
  • NA = Not Available
  • ‡ = Partner data that is not subject to review by the National Climate Archives
Date modified: